sat.trackr.live / text

‹ back to catalog

SIGI

NORAD 62632 · 2025-009Z

PAYLOAD ACTIVE UNKNOWN

§ Identity

Operator
Country
GER
Launch date
2025-01-14
Launch site
AFWTR
Launch vehicle
Mass (kg)
RCS (m²)

External: N2YO · Heavens-Above · Gunter

§ Orbital elements

Epoch: 2026-05-25T03:45:11.542176Z

Period
94.47 min
Inclination
97.4004°
Eccentricity
0.0004217
Mean motion
15.24331818 rev/d
Perigee alt
489.9 km
Apogee alt
495.7 km
Semi-major
6,870.9 km
B*
2.1000e-4
RAAN
225.6297°
Arg perigee
54.5288°
Mean anomaly
305.6342°
Rev number
7,529

§ Raw data

SIGI1 62632U 25009Z   26145.15638359  .00005066  00000+0  21000-3 0  99952 62632  97.4004 225.6297 0004217  54.5288 305.6342 15.24331818 75296

JSON: /api/v1/satellites/62632 · /tle

For live sub-satellite position, see the globe view (requires WebGL).

§ Visibility from observer

Set your observer location to see the next 7 days of passes ≥ 10°. The values pass through the URL so the page stays shareable.

No JS? Fill the form by hand. The geolocation button needs JavaScript.

§ Radio — SatNOGS DB

ModeDescriptionDownlinkUplink
BPSK Mode S - Transmitter 2.223 GHz
FM Mode X - Transmitter 8.255 GHz

2 transmitters · refreshed weekly from db.satnogs.org